Regional Weather Roundup
Issued by NWS

Home | Current Version | Previous Version | Graphics & Text | Print | Product List | Glossary Off
Versions: 1 2 3 4 5 6 7 8 9 10 11 12 13 14 15 16 17 18 19 20 21 22 23 24 25 26 27 28 29 30 31 32 33 34 35 36 37 38 39 40 41 42 43 44 45 46 47 48 49 50

000
ASUS43 KTOP 241959
RWRKS

WEATHER ROUNDUP FOR KANSAS
NATIONAL WEATHER SERVICE GOODLAND KS
300 PM CDT THU JUL 24 2014

NOTE:  "FAIR" INDICATES FEW OR NO CLOUDS BELOW 12,000 FEET WITH NO
SIGNIFICANT WEATHER AND/OR OBSTRUCTIONS TO VISIBILITY.

KSZ001>006-013>018-027>032-041>047-242100-
NORTHWEST KANSAS

CITY           SKY/WX    TMP DP  RH WIND       PRES   REMARKS
GOODLAND       SUNNY     99  45  15 S22G35    29.97F HX  95
HAYS           SUNNY     73  68  83 S22G28    29.97F
HILL CITY        N/A     99  67  35 S17G26    29.93F HX 103
RUSSELL        SUNNY     91  70  49 SE22G29   29.97F HX  96
$$

KSZ061>065-074>080-084>089-242100-
SOUTHWEST KANSAS

CITY           SKY/WX    TMP DP  RH WIND       PRES   REMARKS
DODGE CITY     SUNNY     94  67  41 S20G25    30.02F HX  97
ELKHART          N/A     97  54  23 S12         N/A  HX  95
GARDEN CITY    SUNNY     96  58  27 S17       30.00F HX  95
GREAT BEND     SUNNY     91  70  49 S20G26    29.98F HX  97
LIBERAL        SUNNY    100  55  22 S17G25    30.04F HX  99
PRATT          SUNNY     90  68  48 S16G22    30.04F
$$

KSZ066>073-081>083-090>101-242100-
SOUTHEAST KANSAS

CITY           SKY/WX    TMP DP  RH WIND       PRES   REMARKS
CHANUTE        SUNNY     85  65  51 SE9       30.07F
COFFEYVILLE    SUNNY     86  65  49 E8        30.04F
HUTCHINSON     SUNNY     92  66  42 SE15G26   30.02F
MEDICINE LODGE   N/A     91  71  51 S15       30.01F HX  97
NEWTON         SUNNY     90  64  43 S14G23    30.07F
PARSONS        SUNNY     87  67  51 S8        30.07F
WICHITA INTL   MOSUNNY   88  68  51 SE14G20   30.03F
WICHITA JABRA  SUNNY     88  69  53 S16G22    30.04F
WINFIELD       SUNNY     89  70  53 SE15      30.05F
$$

KSZ007>012-019>026-033>040-048>060-102>105-242100-
NORTHEAST KANSAS

CITY           SKY/WX    TMP DP  RH WIND       PRES   REMARKS
CONCORDIA      SUNNY     87  67  51 SE22G31   30.00F
EMPORIA        SUNNY     85  65  51 SE13      30.06F
LAWRENCE       SUNNY     86  62  44 SE13      30.07F
MANHATTAN      SUNNY     90  62  39 SE13G21   30.02F
OLATHE IND     SUNNY     82  58  43 SE10      30.09F
OLATHE EXE     SUNNY     80  58  46 SE8G16    30.08F
SALINA         SUNNY     94  65  38 SE22G29   30.00F HX  96
TOPEKA BILLARD SUNNY     86  61  42 SE14      30.06F
TOPEKA FORBES  SUNNY     86  60  41 E13G23    30.06F
$$


USA.gov is the U.S. government's official web portal to all federal, state and local government web resources and services.